Home   Weather   Groningen   Past weeks
Flag for Netherlands

Past Weather in Groningen, Netherlands — Yesterday and Last 2 Weeks

Now
75 °F

Clear.


Feels Like: 78 °F
Forecast: 65 / 56 °F
Wind: 12 mph from Southwest

Location: Groningen Eelde Airport

Current Time: Jun 19, 2019 at 5:06:36 pm

Latest Report: Jun 19, 2019 at 4:25 pm


Visibility: N/A

Pressure: 29.71 "Hg

Humidity: 57%

Dew Point: 59 °F

Location of GroningenLocation

Past Weather in Groningen — Graph

°F

Groningen Temperature Yesterday

Maximum temperature yesterday: 81 °F (at 1:55 pm)
Minimum temperature yesterday: 54 °F (at 4:55 am)
Average temperature yesterday: 67 °F

High & Low Weather Summary for the Past Weeks

 TemperatureHumidityPressure
High81 °F (Jun 18, 1:55 pm)100% (Jun 6, 5:55 am)30.21 "Hg (Jun 6, 5:55 am)
Low45 °F (Jun 7, 3:55 am)41% (Jun 4, 3:25 pm)29.53 "Hg (Jun 4, 11:55 pm)
Average62 °F76%29.90 "Hg
* Reported Jun 4 3:25 pm — Jun 19 3:55 pm, Groningen. Weather by CustomWeather, © 2019

Note: Actual official high and low records may vary slightly from our data, if they occured in-between our weather recording intervals... More about our weather records

Advertising

Groningen Weather History for the Previous 24 Hours

Scroll right to see more
 ConditionsComfort  
Time TempWeatherWind HumidityBarometerVisibility
3:55 pm
Wed, Jun 19
79 °FClear.16 mph54%29.71 "HgN/A
3:25 pm79 °FClear.18 mph51%29.71 "HgN/A
2:55 pm79 °FClear.18 mph48%29.71 "HgN/A
2:25 pm77 °FClear.6 mph54%29.71 "HgN/A
1:55 pm73 °FClear.2 mph61%29.71 "HgN/A
1:25 pm73 °FPassing clouds.6 mph65%29.71 "HgN/A
12:55 pm72 °FPassing clouds.7 mph65%29.74 "HgN/A
12:25 pm73 °FClear.14 mph61%29.77 "HgN/A
11:55 am73 °FClear.13 mph69%29.77 "HgN/A
11:25 am77 °FScattered clouds.14 mph65%29.74 "HgN/A
10:55 am75 °FClear.5 mph74%29.74 "HgN/A
10:25 am75 °FClear.1 mph65%29.71 "HgN/A
9:55 am72 °FClear.2 mph73%29.74 "HgN/A
9:25 am72 °FClear.3 mph73%29.74 "HgN/A
8:55 am70 °FMild.3 mph78%29.74 "HgN/A
7:55 am64 °FMild.7 mph88%29.74 "HgN/A
7:25 am64 °FClear.5 mph83%29.74 "HgN/A
6:55 am63 °FMild.5 mph83%29.77 "HgN/A
6:25 am61 °FCool.5 mph88%29.77 "HgN/A
5:55 am61 °FCool.5 mph88%29.77 "HgN/A
5:25 am59 °FCool.6 mph88%29.77 "HgN/A
4:55 am57 °FClear.5 mph94%29.80 "Hg4 mi
4:25 am59 °FClear.5 mph88%29.80 "HgN/A
3:55 am59 °FFog.5 mph88%29.83 "Hg2 mi
3:25 am61 °FClear.6 mph83%29.83 "HgN/A
2:55 am61 °FClear.6 mph83%29.83 "HgN/A
2:25 am61 °FClear.6 mph83%29.83 "HgN/A
1:55 am59 °FClear.6 mph88%29.86 "HgN/A
1:25 am61 °FClear.6 mph83%29.86 "HgN/A
12:55 am61 °FClear.7 mph83%29.86 "HgN/A
12:25 am63 °FClear.5 mph77%29.89 "HgN/A
11:55 pm
Tue, Jun 18
63 °FClear.6 mph77%29.89 "HgN/A
11:25 pm63 °FClear.6 mph77%29.89 "HgN/A
10:55 pm63 °FClear.6 mph77%29.92 "HgN/A
10:25 pm63 °FClear.6 mph73%29.92 "HgN/A
9:55 pm64 °FClear.7 mph68%29.92 "HgN/A
9:25 pm64 °FClear.7 mph73%29.89 "HgN/A
8:55 pm66 °FMild.8 mph68%29.92 "HgN/A
8:25 pm68 °FMild.9 mph69%29.92 "HgN/A
7:55 pm70 °FMild.10 mph64%29.92 "HgN/A
7:25 pm72 °FClear.9 mph65%29.92 "HgN/A
6:55 pm73 °FClear.12 mph65%29.92 "HgN/A
6:25 pm73 °FClear.10 mph61%29.92 "HgN/A
5:55 pm75 °FClear.12 mph61%29.92 "HgN/A
5:25 pm75 °FClear.12 mph61%29.92 "HgN/A
Weather by CustomWeather, © 2019

See weather overview